When you browse on this site, cookies collect data to enhance your experience and personalize the content and advertising you see.
Visit our Privacy Policy to learn more. By continuing to use the site, you agree to this use of cookies and data.
  • In Latvia
  • List of Countries
  • For 7 days
  • Water Temperature
  • Weather Map
  • Weather Widgets
  • user-avatar
    Login

    Hourly Weather Budapest

    Today, 18 September, Wednesday

    Time Temperature Precipitation Wind Pressure Humidity
    00:00 +17°C° 0 mm 5 mps 752 mmHg 62%
    01:00 +17°C° 0 mm 4 mps 752 mmHg 66%
    02:00 +15°C° 0 mm 4 mps 753 mmHg 64%
    03:00 +14°C° 0 mm 4 mps 753 mmHg 62%
    04:00 +13°C° 0 mm 5 mps 754 mmHg 60%
    05:00 +13°C° 0 mm 5 mps 755 mmHg 58%
    06:00 +13°C° 0 mm 6 mps 755 mmHg 56%
    07:00 +12°C° 0 mm 7 mps 756 mmHg 53%
    08:00 +14°C° 0 mm 7 mps 757 mmHg 48%
    09:00 +15°C° 0 mm 7 mps 757 mmHg 42%
    10:00 +16°C° 0 mm 6 mps 757 mmHg 37%
    11:00 +17°C° 0 mm 6 mps 757 mmHg 34%
    12:00 +19°C° 0 mm 5 mps 757 mmHg 31%
    13:00 +19°C° 0 mm 5 mps 757 mmHg 28%
    14:00 +19°C° 0 mm 5 mps 757 mmHg 28%
    15:00 +19°C° 0 mm 5 mps 757 mmHg 28%
    16:00 +19°C° 0 mm 5 mps 757 mmHg 27%
    17:00 +17°C° 0 mm 4 mps 757 mmHg 30%
    18:00 +16°C° 0 mm 3 mps 757 mmHg 33%
    19:00 +14°C° 0 mm 2 mps 757 mmHg 36%
    20:00 +14°C° 0 mm 2 mps 758 mmHg 38%
    21:00 +13°C° 0 mm 2 mps 758 mmHg 39%
    22:00 +13°C° 0 mm 2 mps 758 mmHg 41%
    23:00 +12°C° 0 mm 2 mps 758 mmHg 44%

    Tomorrow, 19 September, Thursday

    Time Temperature Precipitation Wind Pressure Humidity
    00:00 +12°C° 0 mm 2 mps 758 mmHg 47%
    01:00 +10°C° 0 mm 2 mps 758 mmHg 50%
    02:00 +10°C° 0 mm 2 mps 758 mmHg 53%
    03:00 +10°C° 0 mm 2 mps 758 mmHg 56%
    04:00 +10°C° 0 mm 3 mps 758 mmHg 59%
    05:00 +10°C° 0 mm 3 mps 759 mmHg 59%
    06:00 +11°C° 0 mm 3 mps 759 mmHg 59%
    07:00 +11°C° 0 mm 3 mps 759 mmHg 59%
    08:00 +12°C° 0 mm 3 mps 759 mmHg 54%
    09:00 +14°C° 0 mm 4 mps 760 mmHg 48%
    10:00 +15°C° 0 mm 4 mps 760 mmHg 42%
    11:00 +17°C° 0 mm 4 mps 760 mmHg 38%
    12:00 +18°C° 0 mm 4 mps 759 mmHg 34%
    13:00 +18°C° 0 mm 4 mps 759 mmHg 29%
    14:00 +18°C° 0 mm 4 mps 759 mmHg 30%
    15:00 +18°C° 0 mm 4 mps 759 mmHg 31%
    16:00 +17°C° 0 mm 5 mps 759 mmHg 32%
    17:00 +15°C° 0 mm 4 mps 759 mmHg 36%
    18:00 +14°C° 0 mm 4 mps 760 mmHg 40%
    19:00 +12°C° 0 mm 3 mps 760 mmHg 44%
    20:00 +12°C° 0 mm 3 mps 760 mmHg 46%
    21:00 +11°C° 0 mm 3 mps 760 mmHg 48%
    22:00 +10°C° 0 mm 3 mps 761 mmHg 49%
    23:00 +10°C° 0 mm 2 mps 761 mmHg 52%

    Day after tomorrow, 20 September, Friday

    Time Temperature Precipitation Wind Pressure Humidity
    00:00 +9°C° 0 mm 2 mps 761 mmHg 55%
    01:00 +9°C° 0 mm 2 mps 761 mmHg 59%
    02:00 +8°C° 0 mm 2 mps 761 mmHg 61%
    03:00 +8°C° 0 mm 2 mps 761 mmHg 64%
    04:00 +7°C° 0 mm 2 mps 761 mmHg 66%
    05:00 +8°C° 0 mm 2 mps 761 mmHg 64%
    06:00 +10°C° 0 mm 1 mps 761 mmHg 62%
    07:00 +10°C° 0 mm 1 mps 761 mmHg 60%
    08:00 +12°C° 0 mm 1 mps 761 mmHg 53%
    09:00 +14°C° 0 mm 0 mps 762 mmHg 46%
    10:00 +16°C° 0 mm 0 mps 762 mmHg 39%
    11:00 +17°C° 0 mm 0 mps 762 mmHg 36%
    12:00 +18°C° 0 mm 0 mps 761 mmHg 33%
    13:00 +21°C° 0 mm 1 mps 761 mmHg 30%
    14:00 +20°C° 0 mm 1 mps 760 mmHg 29%
    15:00 +20°C° 0 mm 1 mps 760 mmHg 29%
    16:00 +20°C° 0 mm 1 mps 760 mmHg 28%
    17:00 +19°C° 0 mm 1 mps 760 mmHg 31%
    18:00 +16°C° 0 mm 1 mps 760 mmHg 35%
    19:00 +14°C° 0 mm 1 mps 760 mmHg 38%
    20:00 +14°C° 0 mm 1 mps 760 mmHg 40%
    21:00 +13°C° 0 mm 1 mps 761 mmHg 41%
    22:00 +13°C° 0 mm 1 mps 761 mmHg 43%
    23:00 +12°C° 0 mm 1 mps 761 mmHg 44%

    21 September, Saturday

    Time Temperature Precipitation Wind Pressure Humidity
    00:00 +12°C° 0 mm 1 mps 761 mmHg 45%
    01:00 +12°C° 0 mm 1 mps 761 mmHg 46%
    02:00 +11°C° 0 mm 1 mps 761 mmHg 48%
    03:00 +11°C° 0 mm 1 mps 761 mmHg 49%
    04:00 +10°C° 0 mm 1 mps 761 mmHg 50%
    05:00 +11°C° 0 mm 1 mps 761 mmHg 49%
    06:00 +12°C° 0 mm 1 mps 761 mmHg 48%
    07:00 +12°C° 0 mm 1 mps 761 mmHg 47%
    08:00 +14°C° 0 mm 2 mps 761 mmHg 42%
    09:00 +16°C° 0 mm 2 mps 761 mmHg 37%
    10:00 +18°C° 0 mm 3 mps 761 mmHg 32%
    11:00 +19°C° 0 mm 3 mps 761 mmHg 30%
    12:00 +20°C° 0 mm 3 mps 760 mmHg 28%
    13:00 +21°C° 0 mm 3 mps 760 mmHg 26%
    14:00 +21°C° 0 mm 3 mps 760 mmHg 27%
    15:00 +21°C° 0 mm 3 mps 759 mmHg 27%
    16:00 +21°C° 0 mm 3 mps 759 mmHg 27%
    17:00 +20°C° 0 mm 2 mps 759 mmHg 31%
    18:00 +18°C° 0 mm 2 mps 759 mmHg 34%
    19:00 +16°C° 0 mm 2 mps 759 mmHg 37%
    20:00 +15°C° 0 mm 2 mps 758 mmHg 38%
    21:00 +15°C° 0 mm 2 mps 758 mmHg 39%
    22:00 +14°C° 0 mm 2 mps 758 mmHg 40%
    23:00 +12°C° 0 mm 3 mps 758 mmHg 42%

    22 September, Sunday

    Time Temperature Precipitation Wind Pressure Humidity
    00:00 +12°C° 0 mm 3 mps 758 mmHg 43%
    01:00 +11°C° 0 mm 3 mps 758 mmHg 44%
    02:00 +11°C° 0 mm 3 mps 757 mmHg 45%
    03:00 +11°C° 0 mm 3 mps 757 mmHg 46%
    04:00 +10°C° 0 mm 3 mps 757 mmHg 48%
    05:00 +11°C° 0 mm 3 mps 756 mmHg 46%
    06:00 +11°C° 0 mm 3 mps 756 mmHg 44%
    07:00 +12°C° 0 mm 3 mps 756 mmHg 42%
    08:00 +14°C° 0 mm 4 mps 756 mmHg 38%
    09:00 +18°C° 0 mm 4 mps 756 mmHg 33%
    10:00 +20°C° 0 mm 4 mps 756 mmHg 29%
    11:00 +22°C° 0 mm 5 mps 755 mmHg 27%
    12:00 +23°C° 0 mm 5 mps 754 mmHg 25%
    13:00 +26°C° 0 mm 5 mps 754 mmHg 23%
    14:00 +26°C° 0 mm 5 mps 753 mmHg 25%
    15:00 +27°C° 0 mm 4 mps 753 mmHg 27%
    16:00 +27°C° 0 mm 4 mps 752 mmHg 29%
    17:00 +26°C° 0 mm 3 mps 752 mmHg 35%
    18:00 +25°C° 0 mm 2 mps 752 mmHg 40%
    19:00 +23°C° 0 mm 2 mps 752 mmHg 45%
    20:00 +23°C° 0 mm 2 mps 752 mmHg 49%
    21:00 +21°C° 0 mm 2 mps 751 mmHg 53%
    22:00 +21°C° 0 mm 3 mps 751 mmHg 57%
    23:00 +20°C° 0 mm 2 mps 751 mmHg 65%

    23 September, Monday

    Time Temperature Precipitation Wind Pressure Humidity
    00:00 +19°C° 0 mm 2 mps 751 mmHg 72%
    01:00 +18°C° 0 mm 2 mps 750 mmHg 79%
    02:00 +17°C° 0 mm 2 mps 750 mmHg 81%
    03:00 +17°C° 0 mm 2 mps 750 mmHg 83%
    04:00 +17°C° 0 mm 2 mps 750 mmHg 85%
    05:00 +17°C° 0 mm 2 mps 750 mmHg 83%
    06:00 +17°C° 0 mm 2 mps 750 mmHg 81%
    07:00 +18°C° 0 mm 2 mps 750 mmHg 79%
    08:00 +20°C° 0 mm 2 mps 750 mmHg 72%
    09:00 +21°C° 0 mm 2 mps 750 mmHg 65%
    10:00 +24°C° 0 mm 2 mps 750 mmHg 58%
    11:00 +25°C° 0 mm 2 mps 750 mmHg 54%
    12:00 +26°C° 0 mm 3 mps 749 mmHg 50%
    13:00 +27°C° 0 mm 3 mps 749 mmHg 46%
    14:00 +25°C° 0.1 mm 4 mps 749 mmHg 51%
    15:00 +22°C° 0.1 mm 5 mps 749 mmHg 56%
    16:00 +20°C° 0.1 mm 5 mps 749 mmHg 60%
    17:00 +20°C° 0.2 mm 6 mps 750 mmHg 66%
    18:00 +19°C° 0.2 mm 6 mps 750 mmHg 72%
    19:00 +19°C° 0.2 mm 6 mps 750 mmHg 78%
    20:00 +17°C° 0.1 mm 6 mps 750 mmHg 79%
    21:00 +17°C° 0.1 mm 6 mps 750 mmHg 79%
    22:00 +17°C° 0.1 mm 6 mps 750 mmHg 80%
    23:00 +16°C° 0.1 mm 7 mps 750 mmHg 80%
    Show more